(389) Industria
ephemeris date magn radius delta ra dec elong phase
Today18 Apr 202413.42.572 AU2.924 AU05h51m+22°41'60.0°19.7°
Opposition9 Apr 202511.22.438 AU1.453 AU12h54m-20°33'166.4°5.6°
(389) Industria - 2024-04-18
astro.vanbuitenen.nl


 
-1 year
-1 month
-1 day
Now
+1 day
+1 month
+1 year

The interactive orbit chart above shows the body's path through the solar system and its position at the given date. Green and blue lines are shown perpendicular to the ecliptic plane: Green if the path is above the ecliptic plane, blue if it is below. (Left-click and drag to rotate the view; Right-click and drag to move the view; Use scroll wheel to zoom in our out.)

The orbital elements of Industria are:

            e (Eccentricity)                : 0.0660588
            a (Semimajor axis)              : 2.6078614
            i (Inclination)                 : 8.12305
            Ω (Longitude of ascending node) : 282.02411
            ω (Argument of perihelion)      : 267.67707
            M (Mean anomaly)                : 281.41469
            Epoch                           : 2024 Mar 31

            L (Longitude of perihelion)     : 9.67766
            B (Latitude of perihelion)      : -8.11633
            P (Orbital period in years)     : 4.21            
        

The light curve chart below shows the estimated development of the minor planet's magnitude.


The all-sky chart below shows the path of the minor planet over the same period as the light curve. The current position is marked yellow.





The following chart shows the path of the minor planet in the next few days. The field of view is optimized for (~10x50) binoculars and finderscopes. A more printer-friendly version of the same chart can be found below.




Ephemerides:
Date       Time       RA (2000)    DEC (2000)    delta   radius  elong  phase   PA    magn
2024-04-18 00:00 UT   05 51 40.5   +22 41 49     2.924    2.572   60.0   19.7    90   13.4 
2024-04-18 18:29 UT   05 52 51.9   +22 40 48     2.932    2.572   59.5   19.7    90   13.4 
2024-04-19 00:00 UT   05 53 13.3   +22 40 29     2.934    2.572   59.3   19.6    90   13.4 
2024-04-20 00:00 UT   05 54 46.6   +22 39 07     2.945    2.571   58.7   19.5    90   13.4 
2024-04-21 00:00 UT   05 56 20.4   +22 37 42     2.955    2.570   58.1   19.4    90   13.4 
2024-04-22 00:00 UT   05 57 54.6   +22 36 14     2.966    2.569   57.5   19.3    90   13.4 
2024-04-23 00:00 UT   05 59 29.3   +22 34 44     2.976    2.569   56.9   19.1    91   13.4 
2024-04-24 00:00 UT   06 01 04.5   +22 33 10     2.986    2.568   56.3   19.0    91   13.4 
2024-04-25 00:00 UT   06 02 40.1   +22 31 33     2.997    2.567   55.7   18.9    91   13.4 
2024-04-26 00:00 UT   06 04 16.2   +22 29 53     3.007    2.567   55.1   18.7    91   13.4 
2024-04-27 00:00 UT   06 05 52.7   +22 28 10     3.017    2.566   54.5   18.6    91   13.4 
2024-04-28 00:00 UT   06 07 29.6   +22 26 24     3.027    2.565   53.9   18.5    91   13.4 
2024-04-29 00:00 UT   06 09 06.9   +22 24 34     3.036    2.565   53.3   18.3    92   13.4 
2024-04-30 00:00 UT   06 10 44.6   +22 22 41     3.046    2.564   52.7   18.2    92   13.4 
2024-05-01 00:00 UT   06 12 22.7   +22 20 45     3.056    2.563   52.1   18.1    92   13.4 
2024-05-02 00:00 UT   06 14 01.2   +22 18 45     3.066    2.563   51.5   17.9    92   13.4 
2024-05-03 00:00 UT   06 15 40.1   +22 16 41     3.075    2.562   50.9   17.8    92   13.4 
2024-05-04 00:00 UT   06 17 19.3   +22 14 34     3.084    2.561   50.3   17.6    93   13.4 
2024-05-05 00:00 UT   06 18 59.0   +22 12 24     3.094    2.560   49.7   17.5    93   13.4 
2024-05-06 00:00 UT   06 20 38.9   +22 10 09     3.103    2.560   49.2   17.3    93   13.4 
2024-05-07 00:00 UT   06 22 19.3   +22 07 51     3.112    2.559   48.6   17.2    93   13.4 
2024-05-08 00:00 UT   06 23 59.9   +22 05 29     3.121    2.558   48.0   17.0    93   13.4 
2024-05-09 00:00 UT   06 25 40.9   +22 03 04     3.130    2.558   47.4   16.9    94   13.4 
2024-05-10 00:00 UT   06 27 22.2   +22 00 34     3.139    2.557   46.9   16.7    94   13.4 


    Terminology:
            
    delta:  distance between minor planet and earth in AU
    radius: distance between minor planet and sun in AU
    magn:   magnitude (brightness) estimate    
    ra:     right ascension in hours (24h = 360deg)
    dec:    declination in degrees
    elong:  elongation in degrees (angle sun-earth-minor planet)    
    phase:  phase angle in degrees (angle sun-minor planet-earth)        
    AU:     Astronomical Unit (mean distance between earth and sun: 149597870.7 km
    

Orbital elements provided by the MPC (Minor Planet Center).
Calculations by a modified version of AAPlus, a C# implementation of the AA+ project by PJ Naughter from the algorithms presented in the book "Astronomical Algorithms" by Jean Meeus.
NGC2000 dso catalog and star labels from VizieR as provided by the Strasbourg astronomical Data Center.
Tycho2 catalog from the ESO archive.